Address 0x059679eca63dde2279b2a9b7f163b1824f5bf52f 11

 
Txn Hash Method
Block
From
To
Value [Txn Fee]
0xe217e78935dd4d195c890d7c33947c4c1bb2c0779fbeb5e899f62d4c98c3cab8Swap Exact Input...2230033142024-06-18 2:28:582 hrs 45 mins ago0x059679eca63dde2279b2a9b7f163b1824f5bf52fOUT 0x22d0fdabd92b6bca3a0f541730f9a81a8b1a36570 ETH0.00001344 0.056783
0xf6c26bb3c28c81e98f80208b85245330732c94b45fd4402b7d5d7d76c10c678bSwap Exact Input...2229833042024-06-18 1:04:344 hrs 10 mins ago0x059679eca63dde2279b2a9b7f163b1824f5bf52fOUT 0x22d0fdabd92b6bca3a0f541730f9a81a8b1a36570 ETH0.00000294 0.01
0x8775d71dccd9de279a0c4e8714471f7c29b7570389312ee6de174f30cd535698Swap Exact Input...2229675852024-06-17 23:58:205 hrs 16 mins ago0x059679eca63dde2279b2a9b7f163b1824f5bf52fOUT 0x22d0fdabd92b6bca3a0f541730f9a81a8b1a36570 ETH0.00000231 0.01
0x729d7449fe8cc69ac9370d72f38d3d721d843279a1bc254d9b443f869de34d1fSwap Exact Input...2229517372024-06-17 22:52:046 hrs 22 mins ago0x059679eca63dde2279b2a9b7f163b1824f5bf52fOUT 0x22d0fdabd92b6bca3a0f541730f9a81a8b1a36570 ETH0.00000264 0.01
0x61254741ffd3aa3390dacc5a190264f2ffd6fd791c7ba24003f495e655af3628Swap Exact Input...2229358922024-06-17 21:45:497 hrs 29 mins ago0x059679eca63dde2279b2a9b7f163b1824f5bf52fOUT 0x22d0fdabd92b6bca3a0f541730f9a81a8b1a36570 ETH0.0000027 0.01
0xf1010fda9e31e2bc546793cfaee9765cd5c12997bb846b89163edb7d27dbe344Swap Exact Input...2229201492024-06-17 20:39:348 hrs 35 mins ago0x059679eca63dde2279b2a9b7f163b1824f5bf52fOUT 0x22d0fdabd92b6bca3a0f541730f9a81a8b1a36570 ETH0.00000298 0.01
0xe8637a1becd2aebbc4960c6165a2cc660e39d1b643c39b676af3cf5ae9c85434Swap Exact Input...2229042842024-06-17 19:33:199 hrs 41 mins ago0x059679eca63dde2279b2a9b7f163b1824f5bf52fOUT 0x22d0fdabd92b6bca3a0f541730f9a81a8b1a36570 ETH0.00000298 0.01
0x5a30b5a8e109d23aadbc2d1273ee7e601e1727ec9ac8e1f2b3f5b96171008ba4Swap Exact Input...2228884282024-06-17 18:27:0310 hrs 47 mins ago0x059679eca63dde2279b2a9b7f163b1824f5bf52fOUT 0x22d0fdabd92b6bca3a0f541730f9a81a8b1a36570 ETH0.00000477 0.01
0xf411a1ff61b196dea56dc61a15943e6e0de164f259f1eb0ac30a35d26851a2b1Swap Exact Input...2228726482024-06-17 17:20:4811 hrs 54 mins ago0x059679eca63dde2279b2a9b7f163b1824f5bf52fOUT 0x22d0fdabd92b6bca3a0f541730f9a81a8b1a36570 ETH0.00000396 0.01
0x576f0410ba19f3e5809239fa88bb96845eb38f237549bdfd4c2832028e963a9bSwap Exact Input...2228569372024-06-17 16:14:3313 hrs ago0x059679eca63dde2279b2a9b7f163b1824f5bf52fOUT 0x22d0fdabd92b6bca3a0f541730f9a81a8b1a36570 ETH0.00000379 0.01
0xaf80aee108255f04d894dbc02ea1f46e72e891e4511f0a060544332b6aad89fbSwap Exact Input...2228410962024-06-17 15:08:1914 hrs 6 mins ago0x059679eca63dde2279b2a9b7f163b1824f5bf52fOUT 0x22d0fdabd92b6bca3a0f541730f9a81a8b1a36570 ETH0.0000032 0.01
0x12419fdf14695c83b1ad4feb2462b67091b23603a7ef5342aa40ddeb673764c0Swap Exact Input...2224193752024-06-16 9:48:481 day 19 hrs ago0x059679eca63dde2279b2a9b7f163b1824f5bf52fOUT 0x22d0fdabd92b6bca3a0f541730f9a81a8b1a36570 ETH0.00000245 0.01
0xc5a83548995a10ef400a8efcf65382f5f3f7415bbf185194dc81e30b87fda96bSwap Exact Input...2224034212024-06-16 8:42:291 day 20 hrs ago0x059679eca63dde2279b2a9b7f163b1824f5bf52fOUT 0x22d0fdabd92b6bca3a0f541730f9a81a8b1a36570 ETH0.00000235 0.01
0xfb734a63a1781e2b2aac928d5a7b511bce587a8cfe90c0031ca5b51473e696e1Swap Exact Input...2223873122024-06-16 7:35:361 day 21 hrs ago0x059679eca63dde2279b2a9b7f163b1824f5bf52fOUT 0x22d0fdabd92b6bca3a0f541730f9a81a8b1a36570 ETH0.00000232 0.01
0x6b7227cd1f81040cf116e7d01efbc91f61ff7dd7fa79367033038c152818ec1aSwap Exact Input...2223714092024-06-16 6:29:261 day 22 hrs ago0x059679eca63dde2279b2a9b7f163b1824f5bf52fOUT 0x22d0fdabd92b6bca3a0f541730f9a81a8b1a36570 ETH0.00000224 0.01
0x6b4529b0bfdf9d3de718591ba939c07fe7f33a3160a5f7d53d337672271f86b7Swap Exact Input...2223554612024-06-16 5:23:021 day 23 hrs ago0x059679eca63dde2279b2a9b7f163b1824f5bf52fOUT 0x22d0fdabd92b6bca3a0f541730f9a81a8b1a36570 ETH0.00000218 0.01
0xd09dda6c18a46236022571ea1f44b8a7403ba94b40b286f7398738c550a9579dSwap Exact Input...2223395402024-06-16 4:16:482 days 58 mins ago0x059679eca63dde2279b2a9b7f163b1824f5bf52fOUT 0x22d0fdabd92b6bca3a0f541730f9a81a8b1a36570 ETH0.00000214 0.01
0x99ad1cccf5e3096bbf3ffff4599675dee5695e6e6ca1649dbc5348723d8a6c93Swap Exact Input...2217279672024-06-14 9:49:043 days 19 hrs ago0x059679eca63dde2279b2a9b7f163b1824f5bf52fOUT 0x22d0fdabd92b6bca3a0f541730f9a81a8b1a36570 ETH0.00000265 0.01
0x8a670d04d305c3f41dd65d10bb78f721fb49afc6270cb3407aefc619f656655fSwap Exact Input...2217120452024-06-14 8:42:473 days 20 hrs ago0x059679eca63dde2279b2a9b7f163b1824f5bf52fOUT 0x22d0fdabd92b6bca3a0f541730f9a81a8b1a36570 ETH0.00000275 0.01
0x7c5744af22e39510c0e44a4c78f66055eee5174e3b2d209ec7ab4d7681ceada9Swap Exact Input...2202488202024-06-10 3:07:218 days 2 hrs ago0x059679eca63dde2279b2a9b7f163b1824f5bf52fOUT 0x22d0fdabd92b6bca3a0f541730f9a81a8b1a36570 ETH0.00000223 0.01
0xe09cecadd4a4a821ba39461b710c81619ee90bf2472462f181825bb161771ccdSwap Exact Input...2192649242024-06-07 6:37:3710 days 22 hrs ago0x059679eca63dde2279b2a9b7f163b1824f5bf52fOUT 0x22d0fdabd92b6bca3a0f541730f9a81a8b1a36570 ETH0.00000281 0.01
0x867aaba75f260d292c3f21daf6298f0fe159a016817f8fff5ea8a5aca8730bf7Swap Exact Input...2192490312024-06-07 5:31:2210 days 23 hrs ago0x059679eca63dde2279b2a9b7f163b1824f5bf52fOUT 0x22d0fdabd92b6bca3a0f541730f9a81a8b1a36570 ETH0.00000274 0.01
0x4766c6097438fde2493c5eb6af2a88db0c49be84c572feef936650b7a583e074Swap Exact Input...2192331862024-06-07 4:25:0811 days 49 mins ago0x059679eca63dde2279b2a9b7f163b1824f5bf52fOUT 0x22d0fdabd92b6bca3a0f541730f9a81a8b1a36570 ETH0.00000278 0.01
0x9e93b25dec5a373b15ef5bfd473b670d1464c81f95c641cf94d1c7e9212a0463Swap Exact Input...2192173112024-06-07 3:18:5411 days 1 hr ago0x059679eca63dde2279b2a9b7f163b1824f5bf52fOUT 0x22d0fdabd92b6bca3a0f541730f9a81a8b1a36570 ETH0.00000266 0.01
0xa6813ca8a9449bae9f7ceee1fad2ccc1c40d49d40c379922c0135e49be70e0bcSwap Exact Input...2192014232024-06-07 2:12:3711 days 3 hrs ago0x059679eca63dde2279b2a9b7f163b1824f5bf52fOUT 0x22d0fdabd92b6bca3a0f541730f9a81a8b1a36570 ETH0.00000283 0.01
[ Download CSV Export 
Latest 4 internal transactions
Parent Txn Hash Block From To Value
0x4b01281a323758be7ffbb2ca74ccdfa8fafc43e36af17d021c1382c2c39a21ac1742552032024-01-26 4:16:39144 days 58 mins ago Wrapped Ether0x059679eca63dde2279b2a9b7f163b1824f5bf52f0.296046786779215938 ETH
0xcdb5c3df75ed4c76c3c45bec127f074a86351480b95ecfb20aae8da3528039ee1618215952023-12-20 6:10:13180 days 23 hrs ago Wrapped Ether0x059679eca63dde2279b2a9b7f163b1824f5bf52f0.02 ETH
0xc054f126301305495cea37568a764121fdb83a7780c893f3f80c01acdd957d441596680572023-12-13 9:36:53187 days 19 hrs ago Wrapped Ether0x059679eca63dde2279b2a9b7f163b1824f5bf52f0.01 ETH
0x187b3cc172063613f03889b99b3d23a6978af2c5073e07761c180fee1c7228541418813052023-10-19 3:37:27243 days 1 hr ago Wrapped Ether0x059679eca63dde2279b2a9b7f163b1824f5bf52f0.236181812344435389 ETH
[ Download CSV Export 
Loading

Contract Name:
0 ETH

Compiler Version
0

Optimization Enabled:
0 ETH

Other Settings:
-NA-
Block Transaction Gas Used Reward
Age Block Fee Address BC Fee Address Voting Power Jailed Incoming
Block Uncle Number Difficulty Gas Used Reward
Loading
Make sure to use the "Vote Down" button for any spammy posts, and the "Vote Up" for interesting conversations.